Location: Harwich
(41.7160°N, 69.9939°W)
Time: 08:47:59
(UTC+01:00)

N. Korean satellite - Visible Passes

Search period start: 06 December 2022 00:00
Search period end: 16 December 2022 00:00
Orbit: 421 x 453 km, 97.3° (Epoch: 04 December)

Date Brightness Start Highest point End Pass type
(mag) Time Alt. Az. Time Alt. Az. Time Alt. Az.
06 Dec 6.4 10:58:28 10° NNE 11:01:52 81° E 11:05:13 10° S visible
06 Dec 9.6 23:01:08 10° SW 23:03:33 18° W 23:05:59 10° NW visible
07 Dec 8.9 10:20:05 10° NE 10:22:49 22° E 10:25:31 10° SSE visible
07 Dec 7.8 11:52:43 10° NNW 11:55:10 19° WNW 11:57:35 10° WSW visible
08 Dec 6.3 11:13:02 10° N 11:16:23 61° WNW 11:19:40 10° SSW visible
08 Dec 9.9 23:16:45 10° WSW 23:18:09 12° W 23:19:33 10° WNW visible
09 Dec 8.0 10:34:13 10° NNE 10:37:20 34° E 10:40:25 10° SSE visible
09 Dec 8.2 12:07:55 10° NW 12:09:30 13° WNW 12:11:03 10° W visible
10 Dec 9.9 09:57:07 10° ENE 09:58:02 11° E 09:58:57 10° ESE visible
10 Dec 6.8 11:27:34 10° N 11:30:44 38° WNW 11:33:49 10° SW visible
11 Dec 7.0 10:48:22 10° NNE 10:51:42 55° E 10:54:57 10° S visible
11 Dec 9.1 22:50:24 10° SSW 22:53:15 24° W 22:56:06 10° NW visible
12 Dec 9.4 10:10:12 10° NE 10:12:24 16° E 10:14:36 10° SE visible
12 Dec 7.4 11:42:06 10° NNW 11:44:54 25° WNW 11:47:40 10° SW visible
13 Dec 6.2 11:02:32 10° NNE 11:05:53 89° NW 11:09:11 10° SSW visible
13 Dec 9.6 23:05:15 10° SW 23:07:29 16° W 23:09:44 10° NW visible
14 Dec 8.7 10:25:27 20° ENE 10:26:37 24° E 10:29:23 10° SSE visible
14 Dec 7.9 11:58:51 17° WNW 11:58:54 17° WNW 12:01:07 10° WSW visible
15 Dec 6.3 11:19:56 54° WNW 11:19:56 54° WNW 11:23:08 10° SSW visible
15 Dec 10.0 23:20:37 10° WSW 23:21:37 11° W 23:22:37 10° WNW visible
